Sturgis, MI

11:45 PM EST on November 24, 2017 (GMT -0500)
Kirsch Municipal

Weather History for KIRS - May, 2014

Change the Weather History Date:

Tuesday, May 6, 2014

  Actual Average (KHAI) Record (KHAI)
Temperature  
Mean Temperature 52 °F -  
Max Temperature 64 °F 69 °F 89 °F (1949)
Min Temperature 41 °F 44 °F 25 °F (1968)
Degree Days  
Heating Degree Days 12    
Growing Degree Days 2 (Base 50)    
Moisture  
Dew Point 37 °F    
Average Humidity 52    
Maximum Humidity 81    
Minimum Humidity 36    
Precipitation  
Precipitation 0.00 in - - ()
Sea Level Pressure  
Sea Level Pressure 30.00 in    
Wind  
Wind Speed 8 mph (East)    
Max Wind Speed 17 mph    
Max Gust Speed 23 mph    
Visibility 10 miles    
Events      
Averages and records for this station are not official NWS values.
T = Trace of Precipitation, MM = Missing Value Source: NWS Daily Summary

Daily Weather History Graph

Daily Weather History Graph

Search for Another Location

Airport or City:

Trip Planner

Search our weather history database for the weather conditions in past years. The results will help you decide how hot, cold, wet, or windy it might be!

Date:

Astronomy

May. 06, 2014 Rise Set
Actual Time 6:31 AM EDT 8:45 PM EDT
Civil Twilight 6:00 AM EDT 9:16 PM EDT
Nautical Twilight 5:22 AM EDT 9:54 PM EDT
Astronomical Twilight 4:41 AM EDT 10:36 PM EDT
Moon 12:48 PM EDT (5/6) 2:03 AM EDT (5/6)
Length of Visible Light 15h 15m
Length of Day
14h 13m
Waxing Crescent, 46% of the Moon is Illuminated
May 6
Waxing Crescent
May 6
First Quarter
May 14
Full
May 21
Last Quarter
May 28
New

Hourly Weather History & Observations

Time (EDT) Temp. Windchill Dew Point Humidity Pressure Visibility Wind Dir Wind Speed Gust Speed Precip Events Conditions
12:15 AM 44.6 °F 43.1 °F 35.6 °F 71% 29.98 in 10.0 mi NE 3.5 mph - N/A   Clear
12:35 AM 44.6 °F 43.1 °F 35.6 °F 71% 29.98 in 10.0 mi NE 3.5 mph - N/A   Clear
12:54 AM 44.6 °F 43.1 °F 35.6 °F 71% 29.98 in 10.0 mi NE 3.5 mph - N/A   Clear
1:15 AM 42.8 °F - 35.6 °F 76% 29.99 in 10.0 mi Calm Calm - N/A   Clear
1:35 AM 42.8 °F - 35.6 °F 76% 29.99 in 10.0 mi Calm Calm - N/A   Clear
1:54 AM 42.8 °F 41.1 °F 35.6 °F 76% 29.98 in 10.0 mi ENE 3.5 mph - N/A   Clear
2:15 AM 42.8 °F - 33.8 °F 70% 29.99 in 10.0 mi Calm Calm - N/A   Clear
2:35 AM 42.8 °F 40.1 °F 33.8 °F 70% 29.98 in 10.0 mi NE 4.6 mph - N/A   Clear
2:54 AM 42.8 °F 41.1 °F 33.8 °F 70% 29.98 in 10.0 mi ENE 3.5 mph - N/A   Clear
3:15 AM 41.0 °F - 33.8 °F 76% 29.98 in 10.0 mi Calm Calm - N/A   Clear
3:35 AM 41.0 °F 39.0 °F 33.8 °F 76% 29.99 in 10.0 mi NE 3.5 mph - N/A   Clear
7:55 AM 42.8 °F 38.6 °F 37.4 °F 81% 30.03 in 10.0 mi East 6.9 mph - N/A   Clear
8:15 AM 44.6 °F 40.7 °F 37.4 °F 76% 30.04 in 10.0 mi East 6.9 mph - N/A   Clear
8:34 AM 46.4 °F 42.4 °F 37.4 °F 71% 30.05 in 10.0 mi East 8.1 mph - N/A   Clear
8:55 AM 48.2 °F - 37.4 °F 66% 30.05 in 10.0 mi East 6.9 mph - N/A   Clear
9:15 AM 50.0 °F - 37.4 °F 62% 30.05 in 10.0 mi East 8.1 mph - N/A   Clear
10:14 AM 53.6 °F - 37.4 °F 54% 30.05 in 10.0 mi East 12.7 mph 19.6 mph N/A   Clear
10:35 AM 55.4 °F - 37.4 °F 51% 30.05 in 10.0 mi ESE 12.7 mph - N/A   Clear
10:54 AM 55.4 °F - 37.4 °F 51% 30.05 in 10.0 mi East 13.8 mph 18.4 mph N/A   Clear
11:14 AM 57.2 °F - 37.4 °F 48% 30.05 in 10.0 mi East 15.0 mph - N/A   Clear
11:35 AM 57.2 °F - 37.4 °F 48% 30.04 in 10.0 mi East 15.0 mph 20.7 mph N/A   Clear
11:54 AM 57.2 °F - 37.4 °F 48% 30.04 in 10.0 mi East 15.0 mph - N/A   Clear
12:15 PM 59.0 °F - 37.4 °F 45% 30.04 in 10.0 mi East 11.5 mph 18.4 mph N/A   Clear
12:35 PM 59.0 °F - 37.4 °F 45% 30.03 in 10.0 mi East 16.1 mph 19.6 mph N/A   Clear
12:55 PM 60.8 °F - 37.4 °F 42% 30.03 in 10.0 mi East 13.8 mph 20.7 mph N/A   Clear
1:15 PM 60.8 °F - 39.2 °F 45% 30.02 in 10.0 mi East 11.5 mph 21.9 mph N/A   Clear
1:34 PM 60.8 °F - 37.4 °F 42% 30.02 in 10.0 mi East 16.1 mph 21.9 mph N/A   Clear
1:55 PM 62.6 °F - 37.4 °F 39% 30.02 in 10.0 mi East 6.9 mph 18.4 mph N/A   Clear
2:15 PM 62.6 °F - 37.4 °F 39% 30.02 in 10.0 mi East 10.4 mph 17.3 mph N/A   Clear
2:34 PM 62.6 °F - 37.4 °F 39% 30.01 in 10.0 mi East 13.8 mph 20.7 mph N/A   Clear
2:55 PM 64.4 °F - 37.4 °F 37% 30.00 in 10.0 mi ENE 10.4 mph 21.9 mph N/A   Clear
3:14 PM 64.4 °F - 37.4 °F 37% 30.00 in 10.0 mi ESE 13.8 mph 18.4 mph N/A   Clear
3:35 PM 64.4 °F - 37.4 °F 37% 30.00 in 10.0 mi ESE 15.0 mph 18.4 mph N/A   Clear
3:55 PM 64.4 °F - 39.2 °F 40% 30.00 in 10.0 mi ESE 11.5 mph 17.3 mph N/A   Clear
4:14 PM 64.4 °F - 39.2 °F 40% 29.99 in 10.0 mi ESE 11.5 mph 18.4 mph N/A   Clear
4:35 PM 64.4 °F - 39.2 °F 40% 29.98 in 10.0 mi ESE 13.8 mph 17.3 mph N/A   Clear
4:55 PM 64.4 °F - 39.2 °F 40% 29.98 in 10.0 mi ESE 15.0 mph - N/A   Clear
5:15 PM 64.4 °F - 39.2 °F 40% 29.98 in 10.0 mi East 12.7 mph - N/A   Clear
5:34 PM 64.4 °F - 39.2 °F 40% 29.97 in 10.0 mi ESE 12.7 mph 20.7 mph N/A   Clear
5:55 PM 64.4 °F - 39.2 °F 40% 29.96 in 10.0 mi ESE 13.8 mph - N/A   Clear
6:15 PM 64.4 °F - 39.2 °F 40% 29.96 in 10.0 mi ESE 15.0 mph 20.7 mph N/A   Clear
6:34 PM 64.4 °F - 39.2 °F 40% 29.97 in 10.0 mi ESE 10.4 mph - N/A   Clear
6:55 PM 62.6 °F - 39.2 °F 42% 29.97 in 10.0 mi SE 13.8 mph 20.7 mph N/A   Clear
7:15 PM 62.6 °F - 39.2 °F 42% 29.97 in 10.0 mi ESE 13.8 mph 20.7 mph N/A   Clear
7:34 PM 62.6 °F - 37.4 °F 39% 29.97 in 10.0 mi ESE 11.5 mph 18.4 mph N/A   Clear
7:55 PM 60.8 °F - 35.6 °F 39% 29.98 in 10.0 mi East 13.8 mph 19.6 mph N/A   Clear
8:14 PM 60.8 °F - 33.8 °F 36% 29.98 in 10.0 mi East 17.3 mph 21.9 mph N/A   Clear
8:35 PM 57.2 °F - 33.8 °F 41% 29.98 in 10.0 mi ESE 16.1 mph 23.0 mph N/A   Clear
8:55 PM 57.2 °F - 33.8 °F 41% 29.99 in 10.0 mi ESE 13.8 mph 19.6 mph N/A   Clear
9:14 PM 55.4 °F - 35.6 °F 47% 29.99 in 10.0 mi East 16.1 mph 19.6 mph N/A   Clear
9:35 PM 55.4 °F - 33.8 °F 44% 30.00 in 10.0 mi East 15.0 mph 20.7 mph N/A   Clear
9:55 PM 53.6 °F - 35.6 °F 51% 29.99 in 10.0 mi East 15.0 mph 23.0 mph N/A   Clear
10:14 PM 53.6 °F - 35.6 °F 51% 29.99 in 10.0 mi East 13.8 mph - N/A   Clear
10:35 PM 51.8 °F - 35.6 °F 54% 29.99 in 10.0 mi East 12.7 mph 17.3 mph N/A   Clear
10:55 PM 51.8 °F - 35.6 °F 54% 30.02 in 10.0 mi East 10.4 mph - N/A   Scattered Clouds
11:14 PM 51.8 °F - 37.4 °F 58% 30.01 in 10.0 mi East 10.4 mph 17.3 mph N/A   Scattered Clouds
11:35 PM 51.8 °F - 37.4 °F 58% 29.99 in 10.0 mi East 13.8 mph 19.6 mph N/A   Mostly Cloudy
11:55 PM 51.8 °F - 37.4 °F 58% 29.98 in 10.0 mi East 16.1 mph 21.9 mph N/A   Mostly Cloudy